Location: Elma
(49.8670°N, 95.9170°W)
Time: 13:35:18
(UTC-05:00)

ISS - Pass Details

Date: 03 April 2019
Orbit: 408 x 410 km, 51.6° (Epoch: 25 April)

Event Time Altitude Azimuth Distance (km) Brightness Sun altitude
Rises 22:26:27 0° 284° (WNW) 2,337 1.1 -22.3°
Reaches altitude 10° 22:28:56 10° 266° (W) 1,472 -0.4 -22.6°
Enters shadow 22:30:30 17° 239° (WSW) 1,107 -1.5 -22.8°
